Погода Каменная Степь

Погода Каменная Степь : погода сейчас, прогноз погоды и архив. Всё, что Вы хотите узнать о погоде Каменная Степь!

Поиск расширенной информации на нашем сайте:

Другие новости

Новости СМИ2

Главная страница сайта

Новости сайта

03.07.2017

Напоминаем, что на нашем специализированном сайте Метеоцентр.Азия вы можете получить высокодетализированные автоматические прогнозы погоды по пунктам России, СНГ и мира в авиационном формате (включающие направление и скорость ветра, видимость, явления погоды, количество и форму облачности, нижнюю и верхнюю границу облачности).


Погода Каменная Степь - сегодня

Время (UTC), дата Ветер
(°,м/с) 
Видим.   Явления Облачность Т
(°С)
Тd
(°С)
f(%) Тe
(°С)
Pmin
(гПа)
dP
(гПа)
Po
(мм)
O2
(г/м3)
Тmin Tmax R s Состояние
почвы
18 13.08.18 250 (З) 10 км    8/0 средняя, верхняя 
[Ac As|Cs]
+22.1 +10.6 48 +24  1013.3  0.9  743  275           
21 13.08.18 250 (З) 10 км    8/0 верхняя 
[Cs]
+18.6 +10 57 +21  1013.3  743  279           
00 14.08.18 270 (З) 10 км    8/0 верхняя 
[Cs]
+14.5 +9.7 73 +17  1014.5  0.6  744  283           
06 14.08.18 270 (З) 13000 м    6/0 верхняя 
[Cs]
+21.3 +11.7 54 +25  1015.1  0.8  745  276           
09 14.08.18 270 (З) 13000 м    4/3 600 м верхняя 
[Cu hum|Ci fib]
+25.8 +10.4 38 +28  1015.4  0.6  745  272           
12 14.08.18 340 (С) 13000 м    3/1 600 м верхняя 
[Cu hum|Cc]
+27.2 +8.5 31 +27  1015  -0.3  745  271           
18 14.08.18 тихо ()   10 км    3/0 верхняя 
[Ci fib]
+19.4 +10.7 57 +22  1016.9  1.1  746  279           
21 14.08.18 070 (В) 10 км    ясно 
+19.6 +8.8 50 +21  1017.3  0.4  746  279           
00 15.08.18 110 (В) 10 км    ясно 
+18.3 +8.6 53 +19  1018.3  0.8  747  280           
06 15.08.18 140 (ЮВ) 12000 м    1/0 верхняя 
[Ci fib]
+23.6 +11.1 45 +26  1018.5  0.5  747  275           
09 15.08.18 140 (ЮВ) 13000 м    ясно 
+27.2 +9 32 +27  1017.7  -0.4  747  272           
12 15.08.18 140 (ЮВ) 13000 м    ясно 
+29.2 +9.7 30 +30  1016.7  -0.7  746  270           
15 15.08.18 160 (Ю) 13000 м    ясно 
+28.8 +10.5 32 +31  1015.8  -1  745  270    +29.8       
18 15.08.18 140 (ЮВ) 10 км    1/0 верхняя 
[Ci fib]
+24.9 +9.9 39 +26  1016.4  0.3  746  274           
21 15.08.18 140 (ЮВ) 10 км    ясно 
+22 +10 46 +23  1016.8  0.2  746  276           
00 16.08.18 140 (ЮВ) 10 км    ясно 
+20.6 +10 51 +22  1016.6  -0.3  746  278           
06 16.08.18 180 (Ю) 12000 м    3/0 средняя 
[Ac As]
+25.1 +11.1 41 +28  1016.4  0.2  746  273  +19.2         
09 16.08.18 180 (Ю) 13000 м    8/4 600 м средняя 
[Cu hum|Ac cast]
+28 +11.3 35 +31  1016.1  -0.1  746  270           
12 16.08.18 210 (ЮЗ) 13000 м    8/8 600 м 
[Cu hum]
+31.4 +13.7 34 +38  1015.2  -0.7  745  267           
18 16.08.18 200 (Ю) 10 км    8/0 средняя 
[Ac trans]
+24.6 +11.3 43 +28  1015.4  0.4  745  273           
21 16.08.18 290 (З) 10 км    3/0 средняя 
[Ac trans]
+22.1 +12 53 +26  1015.6  745  275           
00 17.08.18 050 (СВ) 10 км    ясно 
+20.2 +12.4 61 +25  1015.7  745  277           
06 17.08.18 050 (СВ) 12000 м    10/8 600 м средняя 
[Sc|Ac trans]
+21.8 +15.2 66 +31  1017.7  1.2  746  275           
09 17.08.18 360 (С) 13000 м    6/6 600 м верхняя 
[Cu hum|Ci fib]
+24.5 +15.4 57 +34  1017.6  0.2  747  273           
12 17.08.18 020 (С) 12000 м    9/9 600 м 
[Cu hum]
+25 +16.2 58 +36  1017.9  0.3  747  272           
Время (UTC), дата Ветер
(°,м/с) 
Видим.   Явления Облачность Т
(°С)
Тd
(°С)
f(%) Тe
(°С)
Pmin
(гПа)
dP
(гПа)
Po
(мм)
O2
(г/м3)
Тmin Tmax R s Состояние
почвы

Для получения пояснительной информации подведите курсор к названию столбца.

ПОГОДА Каменная Степь - архив

Всё, что Вы хотите узнать о погоде Каменная Степь - удобно и подробно!

Выберите нужную дату (начиная с 1 января 2015* года) и нажмите кнопку "Найти".
Будут отображены архивные сводки погоды по пункту Каменная Степь, начиная с указанной даты.


Отображать данные в формате CSV (для использования в таблицах Excel)


Внимание! Наш архив погоды предназначен исключительно для личного некоммерческого использования в познавательных целях. Если Вам необходимы официальные справки о состоянии погоды (для производственных, юридических, коммерческих и т.п. целей), обращайтесь в органы Росгидромета.

*Примечание: данная дата относится к архиву по метеостанциям СССР (Россия, СНГ, Балтия).
Архив по метеостанциям Зарубежной Европы и Азии (кроме Китая) хранится 10 дней, по другим регионам земного шара (Китай, Африка, Америка, Австралия, Океания) - 1 день.

Каменная Степь - район местоположения метеостанции


Название, широта, долгота, высота метеостанции:
Каменная Степь 51.1°ш. 40.7°д. 194 м над ур. моря [Российская Федерация]

Дополнительная информация

В oтличие oт бoльшинства пoгoдных сайтoв мы публикуем пoдрoбную метеoинфoрмацию в детальнoм прoфессиoнальнoм фoрмате.

Характеристики температуры и влажнoсти вoздуха измеряются на высoте 2 м в тени вдали oт зданий и деревьев.
Скoрoсть ветра измеряется на высoте 10 м (на урoвне рoста челoвека скoрoсть ветра ниже в 1.5-2 раза). Если метеoстанция нахoдится в гoрoде или в лесу, тo скoрoсть ветра занижена на 2-4 м/с пo сравнению с oткрытым местoм. Скoрoсть ветра над акватoриями крупных рек и oзёр, а также на вершинах хoлмoв на 2-5 м/с выше, чем в oбычных услoвиях.
Атмoсфернoе давление в разных тoчках местнoсти мoжет значительнo oтличаться oт давления на метеoстанции, в зависимoсти oт услoвий рельефа (при пoдъёме на 10 м давление пoнижается примернo на 1 мм рт.ст.).